Погода в Рубцовске

Россия / Алтайский край     51°30′04″N   81°12′28″E
темп.,
°C
ветер,
м/с
пор.,
м/с
влажн.,
%
обл.,
%
осадки,
мм/ч
давл.,
гПа
погр.,
м
14 мая, пт
пт1401:00+10зсз4985100 0.9 1014357
04:00+9ссз379476 0.1 1014246
07:00+10с3494100 0.1 1016252
10:00+10св3592100 0.4 1019299
13:00+14ссв247065 0.8 1020923
16:00+18ссв465051 1.5 10201678
19:00+18с364990 2.1 10211429
22:00+12с476010 0.0 1024102
15 мая, сб
сб1501:00+10ссв35707 0.0 102585
04:00+8ссв347537 0.0 102557
07:00+9св357398 0.0 1026105
10:00+15ссв45466 0.0 1026579
13:00+19ссв34325 0.0 10241200
16:00+22ссв34285 0.0 10231467
19:00+21св2338100 0.0 1022211
22:00+16юв11445 0.0 102211
16 мая, вс
вс1601:00+15юз12475 0.0 102110
04:00+13юз22515 0.0 102016
07:00+14юз335597 0.0 102048
10:00+20юз454028 0.0 1019366
13:00+25зюз5635100 0.2 10181396
16:00+27зсз452993 0.0 10162798
19:00+26юз363684 0.0 1014382
22:00+19ю586098 0.0 1015141
17 мая, пн
пн1701:00+17зюз2361100 0.0 101537
04:00+16юз01687 0.0 101411
07:00+16зсз2377100 0.1 101571
10:00+20с3461100 0.0 1016706
13:00+24ссз46405 0.0 10161907
16:00+25с56356 0.0 10162357
19:00+24с56415 0.0 10162032
22:00+18всв22630 0.0 101725
18 мая, вт
вт1801:00+16ююз11695 0.0 101611
04:00+15ююз34711 0.0 101542
07:00+16ююз477429 0.0 1015158
10:00+23юз7104672 0.0 1013578
13:00+28з683115 0.0 10111719
16:00+29сз472892 0.0 10092938
19:00+19юв356537 8.1 1009103
22:00+16ю6989100 2.4 1010194